STARLINK-5709, 55621

Orbit data source: Space-Track

STARLINK-5709, 55621 is a payload satellite owned by SpaceX/Seattle (US) in LEO that was launched on Sun, 12 Feb 2023 UTC via an FALCON 9 launch vehicle from the Air Force Eastern Test Range (AFETR). Payload-class satellites include a variety of spacecraft equipped with specific instruments for various scientific and technological missions. These include communications satellites like Starlink; space stations such as the ISS; scientific satellites like the Hubble; Earth observation satellites from companies like Planet Labs, Umbra, and HawkEye 360; GPS; miniature CubeSats for education and research; and military/defense satellites.

Loading next visibility...
Identifier
55621, 2023-020BE
Orbit
LEO
Country
Flag of USUS
Related business
Manufacturer
SpaceX/Seattle
Mission
Operational Commercial Communications
Bus & Motor
STARLINK, Unknown motor
Mass
305 kg wet, ~290 kg dry
Launch date (UTC)
2023-02-12 (4 years ago)
Launch vehicle
FALCON 9
Launch site
Air Force Eastern Test Range (AFETR)
Object type
Payload
Rocket body
Debris
Shape & HBR
Box + 1 Pan, 10.1 m
Radar Cross Section
13.562 m², Large (>1 m²)

Expand to show TLE details & history
Last TLE update: 19 hours ago

TLE from 19 hours ago
0 STARLINK-5709
1 55621U 23020BE  26263.68234678  .00000111  00000-0  13568-4 0  9999
2 55621  43.0025 332.7844 0001339 267.6645  92.4053 15.27577601198864
Epoch: 2026-09-20T16:22Z
TLE epoch observation values (Epoch: 2026-09-20T16:22:34.761Z)
Latitude
-0.00006°
Longitude
87.56648°
Altitude
482.871 km
Speed
7.626 km/s
True Right ascension
22h 11m 08s
True Declination
0° 00' 00"
Sunlit
Object was in full shadow at epoch
Visualization orbit readout
Latitude
Unknown
Longitude
Unknown
Altitude
Unknown
Speed
Unknown
Apparent Right ascension
Unknown
Apparent Declination
Unknown
Sunlit
N/A
Visualization observer readout
Local Sidereal Time
04:03:32
Azimuth
Unknown
Elevation
Unknown
Doppler factor
Unknown
Orbital elements
Apogee altitude
485.92 km
Perigee altitude
484.082 km
Semi-major axis
6,863.138 km
Eccentricity
0.00013
Inclination
43.0025°
RAAN
332.7844°
Arg. of periapsis
267.6645°
True anomaly
92.42063°
Mean anomaly
92.4053°
Eccentric anomaly
92.41297°
Mean motion
3.81732 °/min
Orbital period
94.31 mins
BSTAR
0.000013568
Loading maneuver chart data...
Computing Atmospheric mass density...
Loading historical data...
Loading historical data...
Loading historical data...
Loading historical data...
Loading historical data...
Loading historical data...
Loading historical data...

Documentation

Showing up to 5 results
|